Regional Weather Roundup
Issued by NWS

Home | Current Version | Previous Version | Graphics & Text | Print | Product List | Glossary On
Versions: 1 2 3 4 5 6 7 8 9 10 11 12 13 14 15 16 17 18 19 20 21 22 23 24 25 26 27 28 29 30 31 32 33 34 35 36 37 38 39 40 41 42 43 44 45 46 47 48 49 50
000
ASUS45 KBOU 031907
RWRCO

WEATHER ROUNDUP FOR COLORADO
NATIONAL WEATHER SERVICE DENVER/BOULDER CO
1200 PM MST SAT DEC 03 2016

NOTE: "FAIR" INDICATES FEW OR NO CLOUDS BELOW 12000 FEET WITH NO
SIGNIFICANT WEATHER AND/OR OBSTRUCTIONS TO VISIBILITY.

COZ001>005-013-030-031-032000-
...NORTHWEST COLORADO...

CITY           SKY/WX    TMP DP  RH WIND       PRES   REMARKS
CRAIG          CLOUDY    27  10  49 NE3       30.15F
HAYDEN         FAIR      21   9  58 SE6       30.14F WCI  14
MEEKER         CLOUDY    18  10  71 S3        30.16F
MOUNT WERNER   NOT AVBL
STEAMBOAT SPGS CLOUDY    20  11  66 CALM      30.13F
WALDEN           N/A     21   7  53 SW13G20   30.04F WCI   9
$$

COZ006>008-011-032000-
...WEST CENTRAL VALLEYS...

CITY           SKY/WX    TMP DP  RH WIND       PRES   REMARKS
GRAND JUNCTION FAIR      36  21  54 S3        30.19F
MONTROSE       FAIR      32  19  58 SE7       30.19F WCI  26
EAGLE          CLOUDY    30  18  59 CALM      30.15F
RIFLE          CLOUDY    30  17  58 CALM      30.19F
DELTA          NOT AVBL
NUCLA          FAIR      32  19  59 CALM      30.21F
$$

COZ017>023-064>068-032000-
...SOUTHWEST COLORADO...

CITY           SKY/WX    TMP DP  RH WIND       PRES   REMARKS
DURANGO        FAIR      35  24  64 VRB5      30.08F WCI  31
CORTEZ         FAIR      39  25  57 W9        30.12F
PAGOSA SPRINGS PTSUNNY   34  21  59 CALM      30.07F
TELLURIDE      NOT AVBL
WOLF CREEK PAS FOG       16  16 100 SW8       30.07F VSB 3/4 WCI   5
$$

COZ009-010-012-014-032>034-037-058>063-032000-
...CENTRAL COLORADO...

CITY           SKY/WX    TMP DP  RH WIND       PRES   REMARKS
ASPEN          PTSUNNY   25  13  60 NW7       30.08F WCI  17
BUENA VISTA    FAIR      30  17  56 SE5       29.99F WCI  25
COPPER MTN     PTSUNNY   14  -4  44 MISG      29.98F
BERTHOUD PASS  CLOUDY     3  -9  55 N22G31    29.90F WCI -19
COTTONWOOD PAS FAIR      32  -2  23 SW8G20    29.96F WCI  25
GUNNISON       FAIR      24  15  68 SW6       30.10F WCI  17
KREMMLING      PTSUNNY   28  18  64 CALM      30.12F
LEADVILLE      FAIR      19  -3  38 W15G22    30.00F WCI   5
MONARCH PASS   CLOUDY    10   7  85 W47       30.03S WCI -16
SALIDA           N/A     34  14  44 SW16G28   30.05F WCI  23
SUNLIGHT       CLOUDY   N/A N/A N/A SW5       30.09F
WILKERSON PASS FAIR      18   9  68 W5        29.96F WCI  11
$$

COZ069>075-032000-
...SAN LUIS VALLEY/SANGRE DE CRISTO MOUNTAINS...

CITY           SKY/WX    TMP DP  RH WIND       PRES   REMARKS
ALAMOSA        FAIR      27  19  72 CALM      30.05F
LA VETA PASS   CLOUDY    21  18  86 NE31G40   29.94F FOG     WCI   3
SAGUACHE       FAIR      32  18  55 SE5       30.05F WCI  27
$$

COZ035-036-038>040-032000-
...NORTHERN COLORADO FRONT RANGE...

CITY           SKY/WX    TMP DP  RH WIND       PRES   REMARKS
DENVER INTL AP PTSUNNY   39  14  36 CALM      29.96F
DMNS CITY PARK   N/A     36  15  42 N5        29.97F
AURORA         PTSUNNY   40   9  27 NW6       29.96F
FRONT RANGE AP PTSUNNY   41  10  28 W3        29.97
ERIE MUNI ARPT FAIR      34  22  62 CALM      29.99S
BOULDER MUN AP PTSUNNY   34  21  60 CALM      29.97F
CENTENNIAL     PTSUNNY   39   9  29 VRB3      29.96F
BROOMFIELD     PTSUNNY   32  21  64 CALM      29.97F
FORT COLLINS   FAIR      30  21  69 CALM      29.99F
LONGMONT       PTSUNNY   34  22  62 CALM      30.00F
$$

COZ041-046-047-076>085-087-088-032000-
...PIKES PEAK/PALMER DIVIDE AND SOUTHERN FOOTHILLS...

CITY           SKY/WX    TMP DP  RH WIND       PRES   REMARKS
COLO. SPRINGS  FAIR      37  20  50 CALM      29.95F
A. F. ACADEMY  FAIR      36  20  50 S3        29.92F
SCHRIEVER AFB  NOT AVBL
ELLICOTT       FAIR     N/A N/A N/A CALM      29.93F
FALCON         FAIR      41  10  27 N12       29.94F
FORT CARSON    FAIR      37  19  47 NE6       29.93F
LIMON          FAIR      41  17  38 CALM      29.96F
MONUMENT HILL  FAIR      36   9  32 N5        29.95F
TRINIDAD       FAIR      43  21  41 VRB3      29.94F
$$

COZ042>045-048>051-090-091-032000-
...NORTHEAST COLORADO...

CITY           SKY/WX    TMP DP  RH WIND       PRES   REMARKS
GREELEY ARPT   FAIR      33  21  61 W5        30.00F WCI  29
AKRON          FAIR      36  20  52 NW8       29.98F
BURLINGTON     PTSUNNY   41  25  53 S14       30.01F
WRAY           NOT AVBL
STERLING       FAIR      37  23  56 SW5       29.99F
HOLYOKE        FAIR      45  23  42 SW7       30.01F
FORT MORGAN    CLOUDY    35  22  57 W5        30.00F WCI  31
$$

COZ086-089-092>099-032000-
...SOUTHEAST COLORADO...

CITY           SKY/WX    TMP DP  RH WIND       PRES   REMARKS
PUEBLO         FAIR      40  21  46 SE5       29.96F
LA JUNTA       FAIR      41  23  48 E5        29.98F
LAMAR          CLOUDY    41  29  62 S7G18     30.01F
SPRINGFIELD      N/A     35  31  85 SW12      30.01F WCI  27
$$



USA.gov is the U.S. government's official web portal to all federal, state and local government web resources and services.